Regional Weather Roundup
Issued by NWS Newport/Morehead, NC

Current Version | Previous Version | Graphics & Text | Print | Product List | Glossary Off
Versions: 1 2 3 4 5 6 7 8 9 10 11 12 13 14 15 16 17 18 19 20 21 22 23 24 25 26 27 28 29 30 31 32 33 34 35 36 37 38 39 40 41 42 43 44 45 46 47 48 49 50

000
ASUS42 KMHX 240813
RWRMHX
WEATHER ROUNDUP FOR EASTERN NORTH CAROLINA
NATIONAL WEATHER SERVICE NEWPORT/MOREHEAD CITY NC
400 AM EDT WED MAY 24 2017

NOTE: "FAIR" INDICATES FEW OR NO CLOUDS BELOW 12,000 FEET
WITH NO SIGNIFICANT WEATHER AND/OR OBSTRUCTIONS TO VISIBILITY

NCZ015>017-031-032-045>047-102-103-240900-
NORTH COAST

CITY           SKY/WX    TMP DP  RH WIND       PRES   REMARKS
EDENTON        CLOUDY    67  65  93 CALM      29.65S
ELIZABETH CITY LGT RAIN  64  64 100 N7        29.63F
KITTY HAWK     CLOUDY    70  70 100 CALM      29.62F
MANTEO         CLOUDY    70  68  94 SW7       29.64F

$$

NCZ045>047-081-094-103-104-240900-
CENTRAL COAST

CITY           SKY/WX    TMP DP  RH WIND       PRES   REMARKS
FRISCO         CLOUDY    73  69  87 SW16G25   29.66F

$$

NCZ095-097-098-100-101-240900-
SOUTHERN COAST

CITY           SKY/WX    TMP DP  RH WIND       PRES   REMARKS
BEAUFORT       CLOUDY    74  72  93 W14G22    29.66R
CEDAR ISLAND   NOT AVBL
JACKSONVILLE   NOT AVBL
PINEY ISLAND   CLOUDY   N/A N/A N/A SW13      29.66
WILMINGTON     CLOUDY    70  69  97 W8        29.68R


$$

NCZ011>013-027>030-043-044-078>080-089-090>093-098-240900-
COASTAL PLAIN

CITY           SKY/WX    TMP DP  RH WIND       PRES   REMARKS
AHOSKIE          N/A     61  60  98 CALM      29.65F
CLINTON        MOCLDY    67  67 100 W3        29.67S
ELIZABETHTOWN  CLOUDY    68  68 100 SW5       29.67S
GOLDSBORO      CLOUDY    68  68 100 W6        29.64S
GREENVILLE     CLOUDY    68  66  94 SW5       29.68S
HAVELOCK       CLOUDY    72  68  87 W14       29.67R
KENANSVILLE    CLOUDY    66  66 100 SW3       29.66F
KINSTON        CLOUDY    67  67  97 SW3       29.66S
NEW BERN       CLOUDY    69  68  96 SW7       29.66S
RICHLANDS      CLOUDY    68  66  94 SW7       29.68R
ROCKY MOUNT    CLOUDY    64  64 100 CALM      29.64F
WASHINGTON     CLOUDY    67  67  97 W6        29.65R
WHITEVILLE     CLOUDY    69  67  94 SW3       29.68S

$$

AMZ130-135-150-152-154-156-158-170-250-252-270-ANZ085-086-088-633-658-670-240900-
MARINE OBSERVATIONS

STATION/POSITION TIME  TEMP    WIND        PRES    WAVE   SWELL
                       AIR SEA DIR/SP/G            HT/PER HT/PER
                 (UTC) (F)     (DEG/KT/KT) (MB)    (FT/S) (FT/S)
CHESAPEAKE LIGHT NOT AVBL
64 E VA BEACH    0750   67 64  220/ 14/ 16 1003.4    5/ 7   3/ 7
DUCK             0748   71 61  230/ 11/ 14 1002.6
2 E DUCK         0800      64                N/A     3/ 8   2/11
OREGON INLET     0742   72 69  210/ 18/ 22 1003.0
13E OREGON INLT  0748      65                N/A     5/ 6   2/11
HATTERAS CG      0748   72 73  210/ 14/ 17 1004.2
DIAMOND BUOY     0750   74 74  210/ 21/ 25 1004.4    5/ 5   2/11
CAPE LOOKOUT     0800   72     240/ 12/ 16 1004.0
BEAUFORT LAB     0748   74 73  250/  8/ 15 1003.7
30 SE NEW RVR IN 0708   75 76  250/ 16/ 19 1004.3
30 SE NEW RVR IN 0743      76                N/A     6/ 7
27 SE WRIGHTSVLE 0708   75 75  250/ 12/ 19 1003.6
5 SE WRIGHTSVLE  0708   73 74  260/ 14/ 19 1004.5
225 S CAPE HAT   0750   77 76  200/ 23/ 29 1009.6    7/ 6   2/12
41 SE CHARLESTON 0800   77 77  230/ 21/ 27 1005.0

$$




USA.gov is the U.S. government's official web portal to all federal, state and local government web resources and services.